Date_and_time,latitude,longitude,wind_speed,RelWindDirFrom,WindDirFrom,air_pressure,air_temperature,relative_humidity,Temp,platform_speed_wrt_ground,air_pressure_at_mean_sea_level,platform_orientation
2019-12-22 23:40,50.6304516666667,-96.980765,10.9,15.3,315,983.71,-3.1,82,0.82,0.0,1011.66,90.0
2019-12-22 23:50,50.630455,-96.980765,8.6,12.8,310,984.25,-3.3,82,0.82,0.0,1012.23,90.0
2019-12-23 00:00,50.630455,-96.9807666666667,8.8,13.4,306,984.53,-3.4,81,0.82,0.0,1012.53,360.0
2019-12-23 00:10,50.6304566666667,-96.980765,8.5,12.9,313,984.74,-3.4,81,0.83,0.0,1012.76,360.0
2019-12-23 00:20,50.6304566666667,-96.9807683333333,10.2,15.1,313,984.82,-3.5,80,0.83,0.0,1012.86,360.0
2019-12-23 00:30,50.6304566666667,-96.9807683333333,10.6,16.7,313,984.82,-3.7,78,0.83,0.0,1012.88,360.0
2019-12-23 00:40,50.6304566666667,-96.9807666666667,12.2,18.3,314,984.91,-3.9,76,0.83,0.0,1013.00,360.0
2019-12-23 00:50,50.6304566666667,-96.9807666666667,12.1,19.2,315,985.10,-4.0,75,0.83,0.0,1013.21,360.0
2019-12-23 01:00,50.6304566666667,-96.980765,13.0,18.3,314,985.22,-4.2,75,0.83,0.0,1013.35,68.5
2019-12-23 01:10,50.6304566666667,-96.9807666666667,12.2,18.5,312,985.43,-4.2,74,0.83,0.0,1013.58,68.5
2019-12-23 01:20,50.6304566666667,-96.9807666666667,12.2,19.3,316,985.47,-4.3,74,0.83,0.0,1013.65,68.5
2019-12-23 01:30,50.6304566666667,-96.9807666666667,14.8,22.1,318,985.54,-4.5,73,0.83,0.0,1013.74,68.5
2019-12-23 01:40,50.6304566666667,-96.9807666666667,14.5,23.8,308,985.87,-4.8,72,0.83,0.0,1014.10,68.5
2019-12-23 01:50,50.6304566666667,-96.9807483333333,11.9,17.9,306,986.43,-5.0,72,0.83,0.0,1014.69,68.5
2019-12-23 02:00,50.6304566666667,-96.9807533333333,10.2,17.9,303,986.87,-5.1,73,0.83,0.0,1015.15,48.3
2019-12-23 02:10,50.6304666666667,-96.98076,9.3,13.3,302,987.07,-5.2,74,0.83,0.0,1015.37,48.3
2019-12-23 02:20,50.6304566666667,-96.9807516666667,8.7,16.9,301,987.41,-5.4,74,0.82,0.0,1015.74,48.3
2019-12-23 02:30,50.6304566666667,-96.9807616666667,10.9,15.3,301,987.49,-5.7,72,0.82,0.0,1015.84,48.3
2019-12-23 02:40,50.630455,-96.9807633333333,9.9,14.9,299,987.82,-5.9,71,0.82,0.0,1016.20,48.3
2019-12-23 02:50,50.6304483333333,-96.9807316666667,8.7,15.0,319,988.28,-6.2,71,0.82,0.0,1016.70,48.3
2019-12-23 03:00,50.6304566666667,-96.9807533333333,11.4,19.3,308,988.51,-6.8,66,0.81,0.0,1016.98,90.0
2019-12-23 03:10,50.630465,-96.980765,11.8,17.6,315,988.79,-7.2,66,0.81,0.0,1017.29,90.0
2019-12-23 03:20,50.6304716666667,-96.9807483333333,10.6,16.6,313,988.92,-7.6,66,0.81,0.0,1017.45,90.0
2019-12-23 03:30,50.6304366666667,-96.9807566666667,10.7,16.6,314,988.98,-7.8,67,0.81,0.0,1017.54,90.0
2019-12-23 03:40,50.6304466666667,-96.980765,7.6,12.1,319,989.40,-8.0,68,0.81,0.0,1018.00,90.0
2019-12-23 03:50,50.6304466666667,-96.98077,8.3,13.0,314,989.48,-8.2,68,0.81,0.0,1018.10,90.0
2019-12-23 04:00,50.6304483333333,-96.9807716666667,8.5,13.4,314,989.70,-8.4,69,0.81,0.0,1018.34,228.3
2019-12-23 04:10,50.630455,-96.980775,8.7,12.6,317,989.81,-8.5,69,0.81,0.0,1018.47,228.3
2019-12-23 04:20,50.63046,-96.9807733333333,8.1,12.2,316,989.82,-8.7,70,0.81,0.0,1018.50,228.3
2019-12-23 04:30,50.6304616666667,-96.9807516666667,8.3,14.6,323,989.82,-8.9,71,0.81,0.0,1018.53,228.3
2019-12-23 04:40,50.63046,-96.9807633333333,9.5,15.1,322,989.79,-9.1,72,0.81,0.0,1018.52,228.3
2019-12-23 04:50,50.63046,-96.9807633333333,9.4,14.5,330,989.93,-9.3,73,0.81,0.0,1018.71,228.3
2019-12-23 05:00,50.63046,-96.9807666666667,8.8,12.5,329,990.10,-9.5,73,0.80,0.0,1018.92,305.3
2019-12-23 05:10,50.63046,-96.980765,8.3,12.1,329,990.43,-9.6,73,0.80,0.0,1019.29,305.3
2019-12-23 05:20,50.63046,-96.9807666666667,9.0,13.1,327,990.42,-9.7,74,0.80,0.0,1019.29,305.3
2019-12-23 05:30,50.6304616666667,-96.9807683333333,9.2,13.0,326,990.43,-9.9,74,0.80,0.0,1019.33,305.3
2019-12-23 05:40,50.6304583333333,-96.98076,7.8,11.2,331,990.62,-10.0,74,0.80,0.0,1019.53,305.3
2019-12-23 05:50,50.6304483333333,-96.9807566666667,7.0,10.1,314,990.80,-10.2,75,0.80,0.0,1019.74,305.3
2019-12-23 06:00,50.63045,-96.9807666666667,4.8,7.5,312,991.25,-10.2,75,0.80,0.0,1020.21,270.0
2019-12-23 06:10,50.63046,-96.9807933333333,5.4,8.8,312,991.30,-10.4,76,0.80,0.0,1020.28,270.0
2019-12-23 06:20,50.63046,-96.98078,4.5,7.1,308,991.63,-10.6,77,0.80,0.0,1020.65,270.0
2019-12-23 06:30,50.63046,-96.9807766666667,4.9,7.4,303,991.67,-10.7,77,0.80,0.0,1020.71,270.0
2019-12-23 06:40,50.6304583333333,-96.980775,4.9,6.8,303,991.79,-10.8,77,0.79,0.0,1020.84,270.0
2019-12-23 06:50,50.6304583333333,-96.980775,4.6,6.8,306,991.98,-11.0,78,0.79,0.0,1021.07,270.0
2019-12-23 07:00,50.6304583333333,-96.9807766666667,4.5,6.5,307,992.05,-11.1,78,0.79,0.0,1021.15,360.0
2019-12-23 07:10,50.6304616666667,-96.9807783333333,5.4,7.0,310,992.02,-11.3,79,0.79,0.0,1021.14,360.0
2019-12-23 07:20,50.6304633333333,-96.980775,4.6,6.4,303,992.34,-11.5,79,0.79,0.0,1021.49,360.0
2019-12-23 07:30,50.63046,-96.9807616666667,4.2,5.8,285,992.58,-11.6,80,0.79,0.0,1021.75,360.0
2019-12-23 07:40,50.6304616666667,-96.98077,3.4,4.6,256,992.74,-12.0,81,0.79,0.0,1021.94,360.0
2019-12-23 07:50,50.6304583333333,-96.98077,3.6,5.1,259,992.90,-12.2,82,0.79,0.0,1022.13,360.0
2019-12-23 08:00,50.6304583333333,-96.9807716666667,3.7,4.8,246,993.14,-12.5,83,0.79,0.0,1022.40,270.0
2019-12-23 08:10,50.6304466666667,-96.9807733333333,4.2,5.5,242,993.47,-12.8,83,0.79,0.0,1022.76,270.0
2019-12-23 08:20,50.6304716666667,-96.9807866666667,4.8,6.8,258,993.68,-12.8,84,0.79,0.0,1022.98,270.0
2019-12-23 08:30,50.63046,-96.9807833333333,4.5,6.7,267,993.66,-12.7,84,0.79,0.0,1022.96,270.0
2019-12-23 08:40,50.6304616666667,-96.98078,4.2,6.1,263,993.89,-12.7,84,0.79,0.0,1023.21,270.0
2019-12-23 08:50,50.63046,-96.98078,3.9,5.9,257,994.10,-12.8,84,0.79,0.0,1023.44,270.0
2019-12-23 09:00,50.6304583333333,-96.98078,4.2,5.9,268,994.12,-12.8,85,0.79,0.0,1023.47,291.5
2019-12-23 09:10,50.630455,-96.9807633333333,4.4,6.1,285,994.10,-12.7,85,0.79,0.0,1023.45,291.5
2019-12-23 09:20,50.630455,-96.9807766666667,3.6,5.1,267,994.26,-12.8,85,0.79,0.0,1023.63,291.5
2019-12-23 09:30,50.63044,-96.9807533333333,4.4,5.8,305,994.00,-12.9,86,0.79,0.0,1023.39,291.5
2019-12-23 09:40,50.6304516666667,-96.9807616666667,5.3,7.1,304,993.86,-12.9,87,0.79,0.0,1023.27,291.5
2019-12-23 09:50,50.6304533333333,-96.9807633333333,5.1,7.8,293,993.95,-12.9,87,0.79,0.0,1023.37,291.5
2019-12-23 10:00,50.6304716666667,-96.9807916666667,4.7,6.2,292,994.12,-13.0,87,0.79,0.0,1023.57,328.9
2019-12-23 10:10,50.6304583333333,-96.98077,4.5,6.3,283,994.19,-13.1,88,0.79,0.0,1023.64,328.9
2019-12-23 10:20,50.630455,-96.9807733333333,4.6,5.9,274,994.34,-13.3,88,0.79,0.0,1023.81,328.9
2019-12-23 10:30,50.6304533333333,-96.980775,4.1,5.6,257,994.52,-13.7,88,0.79,0.0,1024.02,328.9
2019-12-23 10:40,50.6304583333333,-96.9807733333333,4.1,5.3,273,994.44,-14.0,89,0.79,0.0,1023.96,328.9
2019-12-23 10:50,50.630445,-96.98077,4.4,5.7,275,994.51,-14.1,90,0.79,0.0,1024.03,328.9
2019-12-23 11:00,50.630445,-96.9807733333333,4.8,5.8,276,994.61,-14.2,90,0.79,0.0,1024.14,360.0
2019-12-23 11:10,50.6304483333333,-96.98077,4.9,6.2,287,994.60,-14.2,90,0.79,0.0,1024.13,360.0
2019-12-23 11:20,50.6304483333333,-96.9807666666667,5.2,6.5,295,994.79,-14.0,90,0.78,0.0,1024.32,360.0
2019-12-23 11:30,50.6304483333333,-96.980775,5.8,7.3,304,994.88,-13.7,89,0.78,0.0,1024.40,360.0
2019-12-23 11:40,50.6304516666667,-96.9807733333333,5.0,7.0,300,995.02,-13.7,89,0.78,0.0,1024.54,360.0
2019-12-23 11:50,50.63045,-96.9807716666667,4.1,5.5,296,995.11,-13.8,89,0.78,0.0,1024.65,360.0
2019-12-23 12:00,50.63045,-96.9807766666667,4.1,5.3,292,995.05,-13.9,89,0.78,0.0,1024.59,119.2
2019-12-23 12:10,50.63045,-96.9807766666667,4.3,5.5,289,995.18,-14.0,89,0.78,0.0,1024.74,119.2
2019-12-23 12:20,50.6304683333333,-96.9807783333333,4.7,5.9,290,995.28,-14.1,89,0.78,0.0,1024.88,119.2
2019-12-23 12:30,50.6304616666667,-96.9807716666667,4.3,5.4,290,995.29,-14.4,89,0.78,0.0,1024.92,119.2
2019-12-23 12:40,50.63046,-96.98078,3.9,6.0,313,995.21,-14.3,89,0.78,0.0,1024.84,119.2
2019-12-23 12:50,50.63046,-96.9807716666667,4.0,5.6,328,995.06,-14.2,89,0.77,0.0,1024.68,119.2
2019-12-23 13:00,50.6304566666667,-96.98077,4.2,5.4,333,995.08,-14.2,90,0.77,0.0,1024.70,152.3
2019-12-23 13:10,50.6304533333333,-96.9807716666667,3.8,5.1,331,995.22,-14.1,89,0.77,0.0,1024.83,152.3
2019-12-23 13:20,50.6304516666667,-96.98077,3.8,5.0,350,995.11,-14.1,89,0.76,0.0,1024.71,152.3
2019-12-23 13:30,50.63045,-96.9807716666667,4.7,5.7,359,995.06,-14.0,90,0.76,0.0,1024.64,152.3
2019-12-23 13:40,50.6304483333333,-96.9807683333333,3.7,5.3,351,995.30,-13.8,90,0.75,0.0,1024.89,152.3
2019-12-23 13:50,50.6304483333333,-96.9807683333333,3.4,4.8,346,995.39,-13.6,89,0.75,0.0,1024.97,152.3
2019-12-23 14:00,50.63045,-96.9807683333333,2.9,3.7,339,995.48,-13.7,89,0.75,0.0,1025.08,360.0
2019-12-23 14:10,50.6304633333333,-96.980775,2.9,3.8,354,995.32,-13.7,89,0.75,0.0,1024.92,360.0
2019-12-23 14:20,50.63045,-96.980765,0.9,3.2,320,995.31,-13.8,89,0.75,0.0,1024.93,360.0
2019-12-23 14:30,50.6304466666667,-96.98076,3.7,5.0,232,995.82,-14.4,88,0.74,0.0,1025.49,360.0
2019-12-23 14:40,50.630445,-96.9807633333333,2.2,3.1,257,995.92,-15.0,87,0.74,0.0,1025.62,360.0
2019-12-23 14:50,50.630445,-96.9807616666667,1.4,2.7,313,995.67,-14.7,86,0.74,0.0,1025.35,360.0
2019-12-23 15:00,50.630445,-96.9807633333333,2.1,2.7,335,995.63,-14.8,86,0.74,0.0,1025.30,360.0
2019-12-23 15:10,50.6304466666667,-96.9807633333333,1.8,2.4,324,995.81,-14.8,87,0.74,0.0,1025.49,360.0
2019-12-23 15:20,50.6304466666667,-96.9807616666667,0.2,1.2,330,995.82,-14.5,87,0.74,0.0,1025.47,360.0
2019-12-23 15:30,50.6304466666667,-96.9807733333333,0.3,2.0,43,995.73,-14.2,86,0.74,0.0,1025.36,360.0
2019-12-23 15:40,50.6304466666667,-96.9807783333333,0.9,2.0,40,995.77,-13.3,85,0.74,0.0,1025.34,360.0
2019-12-23 15:50,50.6304516666667,-96.9807733333333,2.3,3.7,24,995.74,-13.1,85,0.74,0.0,1025.29,360.0
2019-12-23 16:00,50.6304616666667,-96.9807816666667,4.0,5.3,28,995.76,-13.1,86,0.74,0.0,1025.32,317.2
2019-12-23 16:10,50.6304566666667,-96.9807816666667,3.7,5.0,55,996.13,-12.5,88,0.74,0.0,1025.67,317.2
2019-12-23 16:20,50.6304566666667,-96.9807683333333,5.8,6.9,62,996.06,-12.2,88,0.74,0.0,1025.62,317.2
2019-12-23 16:30,50.6304566666667,-96.9807633333333,7.4,8.8,66,995.82,-12.1,88,0.74,0.0,1025.40,317.2
2019-12-23 16:40,50.6304566666667,-96.9807666666667,7.7,8.9,70,995.71,-12.0,88,0.73,0.0,1025.26,317.2
2019-12-23 16:50,50.630455,-96.9807666666667,8.3,9.7,78,995.55,-11.8,87,0.73,0.0,1025.08,317.2
2019-12-23 17:00,50.6304533333333,-96.9807666666667,9.5,11.0,78,995.29,-11.7,87,0.72,0.0,1024.82,90.0
2019-12-23 17:10,50.630455,-96.9807766666667,8.0,10.1,82,995.34,-11.6,86,0.72,0.0,1024.84,90.0
2019-12-23 17:20,50.6304533333333,-96.9807716666667,9.0,10.1,77,995.16,-11.4,85,0.73,0.0,1024.63,90.0
2019-12-23 17:30,50.6304516666667,-96.9807716666667,8.9,10.7,78,995.10,-11.4,85,0.73,0.0,1024.51,90.0
2019-12-23 17:40,50.630455,-96.98076,9.4,11.0,78,994.84,-11.4,85,0.73,0.0,1024.24,90.0
2019-12-23 17:50,50.6304483333333,-96.9807683333333,7.7,9.2,83,994.90,-11.1,83,0.73,0.0,1024.28,90.0
2019-12-23 18:00,50.6304366666667,-96.9807733333333,6.4,8.4,86,994.81,-10.6,81,0.73,0.0,1024.12,228.3
2019-12-23 18:10,50.6304533333333,-96.980775,5.5,7.7,89,994.69,-10.3,80,0.72,0.0,1023.97,228.3
2019-12-23 18:20,50.6304433333333,-96.9807616666667,5.4,7.2,85,994.57,-9.7,77,0.72,0.0,1023.80,228.3
2019-12-23 18:30,50.6304466666667,-96.9807616666667,4.0,5.8,83,994.55,-9.7,77,0.72,0.0,1023.78,228.3
2019-12-23 18:40,50.6304466666667,-96.9807616666667,3.5,5.3,91,994.49,-9.7,77,0.72,0.0,1023.70,228.3
2019-12-23 18:50,50.6304666666667,-96.980775,3.2,4.4,135,994.56,-10.3,80,0.72,0.0,1023.81,228.3
2019-12-23 19:00,50.630455,-96.9807733333333,3.0,4.2,164,994.72,-10.7,79,0.72,0.0,1023.99,167.4
2019-12-23 19:10,50.630455,-96.9807733333333,2.2,3.1,168,994.91,-10.0,76,0.72,0.0,1024.13,167.4
2019-12-23 19:20,50.6304366666667,-96.98077,2.3,3.4,158,994.95,-9.7,76,0.72,0.0,1024.15,167.4
2019-12-23 19:30,50.6304416666667,-96.980775,1.8,3.2,104,994.70,-7.8,68,0.72,0.0,1023.80,167.4
2019-12-23 19:40,50.6304433333333,-96.9807683333333,1.7,2.8,97,994.58,-7.0,66,0.72,0.0,1023.61,167.4
2019-12-23 19:50,50.63045,-96.9807733333333,2.3,3.3,77,994.49,-8.2,71,0.72,0.0,1023.55,167.4
2019-12-23 20:00,50.6304483333333,-96.9807683333333,2.8,3.5,74,994.38,-9.1,75,0.72,0.0,1023.47,142.0
2019-12-23 20:10,50.6304483333333,-96.98077,1.7,2.4,92,994.28,-9.0,75,0.72,0.0,1023.33,142.0
2019-12-23 20:20,50.6304483333333,-96.9807716666667,1.2,1.9,98,994.01,-8.0,71,0.72,0.0,1023.00,142.0
2019-12-23 20:30,50.6304483333333,-96.9807733333333,1.2,2.1,83,993.94,-7.9,71,0.72,0.0,1022.92,142.0
2019-12-23 20:40,50.63045,-96.9807733333333,1.1,2.1,97,994.02,-7.9,71,0.72,0.0,1023.04,142.0
2019-12-23 20:50,50.63045,-96.9807733333333,1.2,1.9,88,993.85,-8.5,75,0.73,0.0,1022.92,142.0
2019-12-23 21:00,50.63045,-96.9807733333333,1.7,3.0,81,993.89,-8.8,76,0.74,0.0,1022.94,360.0
2019-12-23 21:10,50.63045,-96.980775,2.7,3.8,82,993.75,-8.6,75,0.74,0.0,1022.76,360.0
2019-12-23 21:20,50.63045,-96.980775,3.2,4.5,62,993.72,-9.0,77,0.75,0.0,1022.66,360.0
2019-12-23 21:30,50.63045,-96.980775,3.6,4.4,62,993.59,-9.6,80,0.75,0.0,1022.51,360.0
2019-12-23 21:40,50.63045,-96.9807733333333,4.4,5.1,68,993.56,-9.0,78,0.75,0.0,1022.50,360.0
2019-12-23 21:50,50.63045,-96.980775,4.7,5.5,61,993.51,-9.4,80,0.75,0.0,1022.53,360.0
2019-12-23 22:00,50.63045,-96.980775,5.0,5.9,74,993.42,-9.7,82,0.75,0.0,1022.45,90.0
2019-12-23 22:10,50.63045,-96.980775,4.8,5.9,78,993.15,-9.9,83,0.75,0.0,1022.12,90.0
2019-12-23 22:20,50.6304516666667,-96.980775,4.6,5.9,86,993.05,-10.0,84,0.75,0.0,1022.02,90.0
2019-12-23 22:30,50.6304516666667,-96.9807666666667,5.7,7.6,85,992.90,-10.1,85,0.75,0.0,1021.87,90.0
2019-12-23 22:40,50.6304483333333,-96.9807716666667,5.0,6.6,87,993.01,-10.1,86,0.76,0.0,1022.02,90.0
2019-12-23 22:50,50.6304483333333,-96.9807616666667,6.8,8.1,80,992.66,-10.2,87,0.76,0.0,1021.68,90.0
2019-12-23 23:00,50.6304583333333,-96.9807666666667,7.3,8.5,79,992.51,-10.3,87,0.76,0.0,1021.52,360.0
2019-12-23 23:10,50.6304566666667,-96.9807616666667,7.1,8.3,78,992.55,-10.3,87,0.77,0.0,1021.58,360.0
2019-12-23 23:20,50.63045,-96.98076,5.8,8.0,81,992.46,-10.3,87,0.77,0.0,1021.52,360.0
2019-12-23 23:30,50.6304516666667,-96.9807633333333,5.6,6.8,77,992.57,-10.2,87,0.77,0.0,1021.60,360.0
2019-12-23 23:40,50.630455,-96.9807633333333,5.1,6.4,81,992.67,-10.1,87,0.77,0.0,1021.72,360.0
2019-12-23 23:50,50.6304566666667,-96.980765,4.4,5.2,81,992.41,-10.1,87,0.78,0.0,1021.47,360.0
